• în România
  • Lista ţărilor
  • Pe 7 zile
  • Temperatura apei
  • Hartă satelitară
  • Meteo pe hartă
  • Widget-uri
  • user-avatar
    Intrare

    Meteo pe oră la Lapszow

    Astăzi, 22 Octombrie, Luni

    Timp Temperatura Precipitaţii Vânt Presiune Umiditate
    00:00 +5°C° 0 mm 0 m/s 751 mmHg 86%
    01:00 +5°C° 0 mm 0 m/s 751 mmHg 88%
    02:00 +5°C° 0 mm 0 m/s 751 mmHg 89%
    03:00 +5°C° 0 mm 0 m/s 751 mmHg 89%
    04:00 +4°C° 0 mm 0 m/s 751 mmHg 90%
    05:00 +4°C° 0 mm 0 m/s 751 mmHg 89%
    06:00 +5°C° 0 mm 0 m/s 751 mmHg 89%
    07:00 +5°C° 0 mm 0 m/s 751 mmHg 85%
    08:00 +7°C° 0 mm 0 m/s 750 mmHg 78%
    09:00 +9°C° 0 mm 0 m/s 750 mmHg 70%
    10:00 +10°C° 0 mm 0 m/s 750 mmHg 63%
    11:00 +12°C° 0 mm 1 m/s 750 mmHg 59%
    12:00 +13°C° 0 mm 1 m/s 749 mmHg 55%
    13:00 +14°C° 0 mm 1 m/s 749 mmHg 51%
    14:00 +13°C° 0 mm 1 m/s 748 mmHg 54%
    15:00 +13°C° 0 mm 2 m/s 748 mmHg 57%
    16:00 +12°C° 0 mm 2 m/s 748 mmHg 59%
    17:00 +10°C° 0 mm 2 m/s 748 mmHg 63%
    18:00 +9°C° 0 mm 2 m/s 748 mmHg 67%
    19:00 +8°C° 0 mm 2 m/s 748 mmHg 70%
    20:00 +8°C° 0.1 mm 3 m/s 748 mmHg 71%
    21:00 +8°C° 0.1 mm 3 m/s 748 mmHg 72%
    22:00 +9°C° 0.1 mm 3 m/s 748 mmHg 73%
    23:00 +8°C° 0.2 mm 4 m/s 748 mmHg 75%

    Mâine, 23 Octombrie, Marţi

    Timp Temperatura Precipitaţii Vânt Presiune Umiditate
    00:00 +8°C° 0.2 mm 4 m/s 748 mmHg 78%
    01:00 +8°C° 0.2 mm 4 m/s 748 mmHg 81%
    02:00 +7°C° 0 mm 4 m/s 748 mmHg 82%
    03:00 +6°C° 0 mm 4 m/s 747 mmHg 82%
    04:00 +6°C° 0 mm 4 m/s 747 mmHg 83%
    05:00 +5°C° 0 mm 4 m/s 747 mmHg 84%
    06:00 +5°C° 0 mm 4 m/s 747 mmHg 86%
    07:00 +4°C° 0 mm 4 m/s 747 mmHg 87%
    08:00 +5°C° 0 mm 4 m/s 746 mmHg 79%
    09:00 +7°C° 0 mm 5 m/s 745 mmHg 71%
    10:00 +8°C° 0 mm 6 m/s 745 mmHg 63%
    11:00 +8°C° 0.1 mm 6 m/s 744 mmHg 61%
    12:00 +8°C° 0.1 mm 7 m/s 743 mmHg 59%
    13:00 +9°C° 0.1 mm 7 m/s 742 mmHg 57%
    14:00 +7°C° 0.2 mm 8 m/s 741 mmHg 60%
    15:00 +7°C° 0.2 mm 8 m/s 740 mmHg 63%
    16:00 +7°C° 0.2 mm 8 m/s 739 mmHg 65%
    17:00 +7°C° 0.4 mm 9 m/s 738 mmHg 69%
    18:00 +7°C° 0.4 mm 9 m/s 737 mmHg 73%
    19:00 +7°C° 0.4 mm 9 m/s 737 mmHg 77%
    20:00 +7°C° 0.6 mm 9 m/s 736 mmHg 78%
    21:00 +7°C° 0.6 mm 10 m/s 735 mmHg 79%
    22:00 +8°C° 0.6 mm 10 m/s 734 mmHg 80%
    23:00 +8°C° 1.4 mm 10 m/s 733 mmHg 81%

    Poimâine, 24 Octombrie, Miercuri

    Timp Temperatura Precipitaţii Vânt Presiune Umiditate
    00:00 +8°C° 1.4 mm 10 m/s 732 mmHg 82%
    01:00 +9°C° 1.4 mm 10 m/s 730 mmHg 83%
    02:00 +9°C° 1.5 mm 11 m/s 730 mmHg 81%
    03:00 +9°C° 1.5 mm 11 m/s 729 mmHg 80%
    04:00 +9°C° 1.5 mm 12 m/s 728 mmHg 79%
    05:00 +7°C° 0.5 mm 12 m/s 729 mmHg 74%
    06:00 +6°C° 0.5 mm 11 m/s 730 mmHg 70%
    07:00 +4°C° 0.5 mm 11 m/s 731 mmHg 66%
    08:00 +4°C° 0.2 mm 11 m/s 732 mmHg 60%
    09:00 +4°C° 0.2 mm 11 m/s 732 mmHg 55%
    10:00 +6°C° 0.2 mm 11 m/s 733 mmHg 49%
    11:00 +6°C° 0.1 mm 11 m/s 733 mmHg 47%
    12:00 +5°C° 0.1 mm 12 m/s 734 mmHg 44%
    13:00 +5°C° 0.1 mm 12 m/s 734 mmHg 42%
    14:00 +6°C° 0 mm 11 m/s 735 mmHg 43%
    15:00 +5°C° 0 mm 10 m/s 735 mmHg 44%
    16:00 +5°C° 0 mm 10 m/s 735 mmHg 45%
    17:00 +5°C° 0 mm 9 m/s 736 mmHg 46%
    18:00 +3°C° 0 mm 9 m/s 736 mmHg 48%
    19:00 +3°C° 0 mm 9 m/s 737 mmHg 50%
    20:00 +2°C° 0 mm 8 m/s 737 mmHg 52%
    21:00 +2°C° 0 mm 8 m/s 738 mmHg 54%
    22:00 +2°C° 0 mm 8 m/s 739 mmHg 57%
    23:00 +2°C° 0 mm 7 m/s 739 mmHg 60%

    25 Octombrie, Joi

    Timp Temperatura Precipitaţii Vânt Presiune Umiditate
    00:00 +2°C° 0 mm 7 m/s 739 mmHg 64%
    01:00 +2°C° 0 mm 6 m/s 739 mmHg 67%
    02:00 +2°C° 0 mm 6 m/s 739 mmHg 69%
    03:00 +2°C° 0 mm 6 m/s 739 mmHg 70%
    04:00 +2°C° 0 mm 6 m/s 739 mmHg 72%
    05:00 +2°C° 0.1 mm 5 m/s 738 mmHg 74%
    06:00 +2°C° 0.1 mm 5 m/s 738 mmHg 77%
    07:00 +3°C° 0.1 mm 5 m/s 737 mmHg 79%
    08:00 +4°C° 0.6 mm 6 m/s 736 mmHg 81%
    09:00 +5°C° 0.6 mm 7 m/s 736 mmHg 83%
    10:00 +7°C° 0.6 mm 8 m/s 735 mmHg 84%
    11:00 +7°C° 0.4 mm 9 m/s 734 mmHg 82%
    12:00 +8°C° 0.4 mm 9 m/s 734 mmHg 80%
    13:00 +10°C° 0.4 mm 9 m/s 734 mmHg 78%
    14:00 +8°C° 0.4 mm 9 m/s 734 mmHg 77%
    15:00 +8°C° 0.4 mm 9 m/s 734 mmHg 77%
    16:00 +8°C° 0.4 mm 9 m/s 735 mmHg 76%
    17:00 +7°C° 0.1 mm 8 m/s 736 mmHg 77%
    18:00 +6°C° 0.1 mm 7 m/s 736 mmHg 78%
    19:00 +7°C° 0.1 mm 6 m/s 737 mmHg 79%
    20:00 +5°C° 0 mm 6 m/s 737 mmHg 81%
    21:00 +5°C° 0 mm 6 m/s 738 mmHg 82%
    22:00 +5°C° 0 mm 6 m/s 738 mmHg 84%
    23:00 +5°C° 0 mm 6 m/s 738 mmHg 84%

    26 Octombrie, Vineri

    Timp Temperatura Precipitaţii Vânt Presiune Umiditate
    00:00 +5°C° 0 mm 6 m/s 739 mmHg 84%
    01:00 +4°C° 0 mm 6 m/s 739 mmHg 85%
    02:00 +5°C° 0 mm 5 m/s 739 mmHg 86%
    03:00 +5°C° 0 mm 5 m/s 739 mmHg 87%
    04:00 +5°C° 0 mm 4 m/s 739 mmHg 87%
    05:00 +5°C° 0 mm 4 m/s 740 mmHg 88%
    06:00 +4°C° 0 mm 4 m/s 740 mmHg 88%
    07:00 +4°C° 0 mm 4 m/s 740 mmHg 88%
    08:00 +6°C° 0 mm 4 m/s 740 mmHg 82%
    09:00 +7°C° 0 mm 4 m/s 740 mmHg 75%
    10:00 +8°C° 0 mm 4 m/s 740 mmHg 69%
    11:00 +10°C° 0 mm 4 m/s 740 mmHg 65%
    12:00 +11°C° 0 mm 3 m/s 739 mmHg 61%
    13:00 +12°C° 0 mm 3 m/s 739 mmHg 56%
    14:00 +11°C° 0 mm 3 m/s 739 mmHg 60%
    15:00 +10°C° 0 mm 2 m/s 738 mmHg 64%
    16:00 +11°C° 0 mm 1 m/s 738 mmHg 68%
    17:00 +9°C° 0 mm 2 m/s 738 mmHg 71%
    18:00 +9°C° 0 mm 2 m/s 738 mmHg 74%
    19:00 +8°C° 0 mm 2 m/s 738 mmHg 77%
    20:00 +8°C° 0 mm 2 m/s 738 mmHg 79%
    21:00 +8°C° 0 mm 2 m/s 737 mmHg 80%
    22:00 +7°C° 0 mm 3 m/s 737 mmHg 81%
    23:00 +7°C° 0 mm 3 m/s 736 mmHg 83%

    27 Octombrie, Sâmbătă

    Timp Temperatura Precipitaţii Vânt Presiune Umiditate
    00:00 +7°C° 0 mm 3 m/s 736 mmHg 84%
    01:00 +7°C° 0 mm 3 m/s 736 mmHg 85%
    02:00 +7°C° 0 mm 3 m/s 735 mmHg 86%
    03:00 +7°C° 0 mm 3 m/s 735 mmHg 87%
    04:00 +8°C° 0 mm 3 m/s 735 mmHg 88%
    05:00 +8°C° 0 mm 3 m/s 734 mmHg 88%
    06:00 +8°C° 0 mm 2 m/s 734 mmHg 88%
    07:00 +8°C° 0 mm 2 m/s 734 mmHg 88%
    08:00 +10°C° 0 mm 2 m/s 734 mmHg 82%
    09:00 +12°C° 0 mm 3 m/s 734 mmHg 76%
    10:00 +14°C° 0 mm 3 m/s 734 mmHg 70%
    11:00 +16°C° 0 mm 2 m/s 734 mmHg 67%
    12:00 +17°C° 0 mm 2 m/s 733 mmHg 64%
    13:00 +18°C° 0 mm 2 m/s 733 mmHg 61%
    14:00 +17°C° 0 mm 2 m/s 733 mmHg 65%
    15:00 +16°C° 0 mm 2 m/s 732 mmHg 69%
    16:00 +14°C° 0 mm 3 m/s 732 mmHg 73%
    17:00 +14°C° 0.1 mm 3 m/s 732 mmHg 75%
    18:00 +14°C° 0.1 mm 4 m/s 731 mmHg 78%
    19:00 +14°C° 0.1 mm 4 m/s 731 mmHg 80%
    20:00 +14°C° 0 mm 4 m/s 730 mmHg 79%
    21:00 +14°C° 0 mm 5 m/s 730 mmHg 78%
    22:00 +14°C° 0 mm 5 m/s 729 mmHg 77%
    23:00 +14°C° 0 mm 5 m/s 729 mmHg 76%

    28 Octombrie, Duminică

    Timp Temperatura Precipitaţii Vânt Presiune Umiditate
    00:00 +14°C° 0 mm 5 m/s 729 mmHg 74%
    01:00 +14°C° 0 mm 5 m/s 729 mmHg 73%
    02:00 +14°C° 0 mm 5 m/s 729 mmHg 73%
    03:00 +15°C° 0 mm 5 m/s 728 mmHg 73%
    04:00 +15°C° 0 mm 5 m/s 728 mmHg 73%
    05:00 +15°C° 0 mm 5 m/s 728 mmHg 73%
    06:00 +15°C° 0 mm 5 m/s 728 mmHg 72%
    07:00 +15°C° 0 mm 5 m/s 728 mmHg 72%
    08:00 +15°C° 0 mm 5 m/s 729 mmHg 72%
    09:00 +15°C° 0 mm 5 m/s 729 mmHg 71%
    10:00 +16°C° 0 mm 5 m/s 729 mmHg 70%
    11:00 +16°C° 0 mm 5 m/s 730 mmHg 70%
    12:00 +16°C° 0 mm 6 m/s 730 mmHg 70%
    13:00 +15°C° 0 mm 6 m/s 731 mmHg 70%
    14:00 +14°C° 0 mm 6 m/s 731 mmHg 71%
    15:00 +13°C° 0 mm 5 m/s 732 mmHg 73%
    16:00 +12°C° 0 mm 5 m/s 733 mmHg 75%
    17:00 +11°C° 0 mm 4 m/s 734 mmHg 76%
    18:00 +10°C° 0 mm 4 m/s 735 mmHg 78%
    19:00 +9°C° 0 mm 3 m/s 736 mmHg 80%
    20:00 +8°C° 0 mm 3 m/s 737 mmHg 81%
    21:00 +8°C° 0 mm 3 m/s 738 mmHg 83%
    22:00 +7°C° 0 mm 2 m/s 738 mmHg 84%
    23:00 +7°C° 0 mm 2 m/s 739 mmHg 84%
    Arată mai mult